{"data":{"norad_id":56372,"intl_designator":"2023-060C","name":"GS-1","alt_names":[],"object_type":"PAYLOAD","status":"ACTIVE","operator":null,"country":"US","launch_date":"2023-05-01","launch_site_code":"AFETR","launch_vehicle":null,"mission":null,"orbit_class":"UNKNOWN","rcs_meters":null,"size_class":null,"mass_kg":null,"dimensions":null,"purposes":["comms"],"wikipedia_slug":null,"has_3d_model":false,"image_url":null,"decayed_at":null,"tle_current":{"epoch":"2026-09-19T20:52:19.930368Z","epoch_age_seconds":72681,"freshness":"FRESH","line1":"1 56372U 23060C   26262.86967512 -.00000192  00000+0  00000+0 0  9997","line2":"2 56372   2.9629  78.6247 0003053 262.9551  56.2431  1.00249628  8481","mean_motion":1.00249628,"eccentricity":0.0003053,"inclination_deg":2.9629,"raan_deg":78.6247,"arg_perigee_deg":262.9551,"mean_anomaly_deg":56.2431,"bstar":0,"rev_number":848,"period_min":1436.414307692,"perigee_km":35779.932727254,"apogee_km":35805.682305976,"semimajor_km":42170.944516615,"source":"CELESTRAK","updated_at":"2026-09-20T09:00:35.332561Z"}}}